User: anonymous   Login
Location: Chagrin Falls Park
(41.4139°N, 81.3865°W)
Time: 19:38:21
(UTC+00:00)
Language:

STARLINK-2649 - Orbit

View from above orbital plane
View from above orbital plane
View from above satellite
View from above satellite

Ground track
Ground track

The orbit data is extracted from the following two-line orbital elements,

1 48680C 21044AU  21295.44949418  .00000495  00000-0  33161-4 0  2954
2 48680  53.0539  90.8712 0001496  83.0538   8.9188 15.06395034    18
Epoch (UTC): 22 October 2021 10:47:16
Eccentricity: 0.0001496
inclination: 53.0539°
perigee height: 546 km
apogee height: 548 km
right ascension of ascending node: 90.8712°
argument of perigee: 83.0538°
revolutions per day: 15.06395034
mean anomaly at epoch: 8.9188°
orbit number at epoch: 1

The dashed part of the orbit path shows where the satellite is in the earth's shadow,  

DLR